Regional Weather Roundup
Issued by NWS

Home | Current Version | Previous Version | Graphics & Text | Print | Product List | Glossary On
Versions: 1 2 3 4 5 6 7 8 9 10 11 12 13 14 15 16 17 18 19 20 21 22 23 24 25 26 27 28 29 30 31 32 33 34 35 36 37 38 39 40 41 42 43 44 45 46 47 48 49 50
000
ASUS43 KMPX 080801
RWRMN
WEATHER ROUNDUP FOR MINNESOTA
NATIONAL WEATHER SERVICE TWIN CITIES/CHANHASSEN MN
200 AM CST THU DEC 08 2016


NOTE: "FAIR" INDICATES FEW OR NO CLOUDS BELOW 12,000 FEET WITH NO
SIGNIFICANT WEATHER AND/OR OBSTRUCTIONS TO VISIBILITY. N/A MEANS
CURRENT SKY AND/OR WEATHER CONDITIONS ARE NOT AVAILABLE.

MNZ060>063-068>070-080900-
   Twin Cities Metro

CITY           SKY/WX    TMP DP  RH WIND       PRES   REMARKS
TWIN CITIES    FLURRIES  16  10  77 W14       30.16R WCI   2
ST PAUL        LGT SNOW  16  11  80 W12       30.17S WCI   3
CRYSTAL        LGT SNOW  16   9  74 W10       30.15R WCI   4
BLAINE         LGT SNOW  18  14  86 W15G21    30.13S WCI   3
LAKEVILLE      LGT SNOW  12  10  92 W17G23    30.17R WCI  -5
EDEN PRAIRIE   LGT SNOW  16   9  74 W16G25    30.17R WCI   1
SOUTH ST PAUL  FLURRIES  17  11  77 W12       30.16R WCI   4
LAKE ELMO      LGT SNOW  18  14  86 W13G18    30.14S WCI   4
$$
MNZ001>005-007-008-013>017-022>024-027-028-080900-
   Northwest Minnesota

CITY           SKY/WX    TMP DP  RH WIND       PRES   REMARKS
BEMIDJI        LGT SNOW  17  14  89 NW15      30.14R WCI   2
HALLOCK        CLOUDY    19  16  86 NW23      30.29R WCI   2
ROSEAU         FLURRIES  21  16  79 NW14      30.21R WCI   8
WARROAD        LGT SNOW  19  16  86 NW13G18   30.19R WCI   7
THIEF RVR FALL FLURRIES  17  15  92 NW22      30.24R WCI   0
CROOKSTON      LGT SNOW  18  16  93 N25G31    30.28R WCI  -1
FOSSTON        LGT SNOW  16  14  93 NW12G18   30.20R WCI   3
DETROIT LAKES  LGT SNOW  19  18  93 NW18G25   30.21R WCI   4
MOORHEAD       MIX PCPN  16  12  86 NW28      30.29R WCI  -4
PARK RAPIDS    FLURRIES  18  11  74 NW15G22   30.13R WCI   4
$$
MNZ006-009>011-018-025>026-080900-
   North Central Minnesota

CITY           SKY/WX    TMP DP  RH WIND       PRES   REMARKS
BAUDETTE       LGT SNOW  21  15  78 N14G23    30.12R WCI   8
FLAG ISLAND    CLOUDY    21  18  86 N22       30.16R WCI   5
INTL FALLS     LGT SNOW  19  15  84 NW9       30.07R FOG     WCI   8
WASKISH        FLURRIES  19  18  93 NW9       30.13R WCI   9
BIG FORK       FLURRIES  19  16  86 NW5       30.07R WCI  13
LONGVILLE      LGT SNOW  21  18  86 NW12G17   30.10R WCI   9
GRAND RAPIDS   FLURRIES  21  16  81 NW17G25   30.07R WCI   7
CRANE LAKE     CLOUDY    19  18  93 N10G16    30.04R FOG     WCI   8
ORR            CLOUDY    19  16  86 NW8       30.00R WCI   9
COOK           FLURRIES  19  18  93 NW6       30.02R WCI  11
$$
MNZ012-019>021-037-080900-
   Northeast Minnesota

CITY           SKY/WX    TMP DP  RH WIND       PRES   REMARKS
DULUTH         LGT SNOW  22  18  85 NW12      29.97R FOG     WCI  10
ELY            CLOUDY    19  18  93 NW14G21   29.96R WCI   6
HIBBING        MIX PCPN  19  15  84 NW16      30.01R WCI   4
EVELETH        FLURRIES  22  18  84 NW9G17    30.00R WCI  12
DULUTH HARBOR  CLOUDY    27  21  80 NW14      30.03R WCI  15
TWO HARBORS    CLOUDY    27  19  74 NW7G18    29.95R WCI  19
SILVER BAY     CLOUDY    25  19  80 NW8       29.93R WCI  16
GRAND MARAIS     N/A     26  18  71 N17G30    29.88F WCI  13
G MARAIS ARPRT LGT SNOW  19  12  73 NW17G25   29.85R WCI   4
$$
MNZ029>031-032-039>041-046>048-054>057-064-080900-
   West Central Minnesota

CITY           SKY/WX    TMP DP  RH WIND       PRES   REMARKS
FERGUS FALLS   CLOUDY    16  12  86 NW23      30.29R FOG     WCI  -2
WHEATON        FLURRIES  16  10  79 NW22G31   30.33R WCI  -2
MORRIS         LGT SNOW  12  10  92 NW26G32   30.25R WCI  -8
ALEXANDRIA     CLOUDY    13  10  88 NW18      30.19R FOG     WCI  -4
ELBOW LAKE     LGT SNOW  14  12  92 NW23G29   30.25R WCI  -5
WADENA         MIX PCPN  18  14  86 NW16      30.15R WCI   3
GLENWOOD       LGT SNOW  12   9  85 W20       30.19S WCI  -6
APPLETON       CLOUDY    16   9  73 NW18G28   30.28  WCI  -1
BENSON         FLURRIES  14   9  79 N22G30    30.25R WCI  -4
ORTONVILLE     FLURRIES  14   7  73 NW18G31   30.30R WCI  -3
MADISON        LGT SNOW  18  10  73 NW21G28   30.31R WCI   1
WILLMAR        LGT SNOW  16  12  86 NW22G32   30.23S WCI  -2
$$
MNZ033>034-036-042>043-049>051-058-059-080900-
   Central Minnesota

CITY           SKY/WX    TMP DP  RH WIND       PRES   REMARKS
ST CLOUD       CLOUDY    16  12  84 W14       30.15R WCI   2
PAYNESVILLE    CLOUDY    13   9  84 W22G30    30.19R WCI  -6
AITKIN         LGT SNOW  23  18  80 W7        30.06R WCI  15
PINE RIVER     CLOUDY    19  16  86 NW9G16    30.14R WCI   9
BRAINERD       CLOUDY    20  15  81 NW14      30.11R WCI   7
STAPLES        CLOUDY    16  12  86 NW12      30.14R WCI   3
LONG PRAIRIE   CLOUDY    14  10  85 W15       30.16R FOG     WCI  -1
LITTLE FALLS   FLURRIES  19  14  79 NW8       30.14R WCI   9
LITCHFIELD     CLOUDY    16  12  86 NW15G23   30.19R FOG     WCI   1
BUFFALO        PTCLDY    16  11  80 W17G24    30.17R WCI   0
MAPLE LAKE     MOCLDY    16  13  86 W12G23    30.17R WCI   3
HUTCHINSON     LGT SNOW  15  11  85 W17G25    30.21R WCI  -1
$$
MNZ037-044-045-052-053-080900-
   East Central Minnesota

CITY           SKY/WX    TMP DP  RH WIND       PRES   REMARKS
PRINCETON      MOCLDY    18  12  79 W9G16     30.12R WCI   6
MORA           LGT SNOW  18  12  79 W9        30.10R WCI   6
CAMBRIDGE      FLURRIES  19  10  68 W9        30.10R WCI   9
RUSH CITY      MOCLDY    18  12  79 W12       30.09S WCI   5
MOOSE LAKE     LGT SNOW  21  18  86 W8        30.03R WCI  12
HINCKLEY       LGT SNOW  19  18  93 CALM      30.07R
CLOQUET        LGT SNOW  21  18  86 W8        30.00R WCI  12
MCGREGOR       CLOUDY    23  19  86 NW9       30.06R WCI  13
$$
MNZ071>073-080-081-089-090-097-098-080900-
   Southwest Minnesota

CITY           SKY/WX    TMP DP  RH WIND       PRES   REMARKS
MONTEVIDEO     LGT SNOW  14  10  85 N17G29    30.29S WCI  -3
GRANITE FALLS  LGT SNOW  15  11  83 W23       30.30R WCI  -4
CANBY          CLOUDY    14   8  76 NW21G28   30.33R WCI  -4
MARSHALL       FLURRIES  12   6  77 NW25G31   30.30R WCI  -8
REDWOOD FALLS  LGT SNOW  14   8  77 W18G29    30.27R WCI  -3
OLIVIA         LGT SNOW  16  10  79 W20G26    30.24R WCI  -1
PIPESTONE      LGT SNOW   9   3  78 NW17G29   30.31R WCI -10
WINDOM         LGT SNOW  10   7  85 W25       30.26S WCI -10
WORTHINGTON    FLURRIES   8   3  80 W23G33    30.29S WCI -13
JACKSON        CLOUDY     9   3  78 W22G29    30.27S WCI -11
TRACY          FLURRIES  12   7  80 NW20G26   30.30R WCI  -6
SLAYTON        CLOUDY     8   4  82 W23G35    30.29R WCI -13
$$
MNZ065>067-074>077-082>085-091>093-080900-
   South Central Minnesota

CITY           SKY/WX    TMP DP  RH WIND       PRES   REMARKS
MANKATO        FLURRIES  13   9  84 W16G25    30.23R WCI  -3
NEW ULM        FLURRIES  12   9  85 W28       30.24S WCI  -9
ST JAMES       LGT SNOW  12   9  85 W22G31    30.27S WCI  -7
FAIRMONT       FLURRIES  11   5  77 W22G30    30.27R WCI  -8
GLENCOE        FLURRIES  15  12  87 W20G26    30.19R WCI  -2
OWATONNA       LGT SNOW  14   9  79 W17G25    30.19S WCI  -3
WASECA         LGT SNOW  14  10  85 W18G24    30.23R WCI  -3
ALBERT LEA     FLURRIES  16  10  79 W14G23    30.22R WCI   1
$$
MNZ078>079-086>088-094>096-080900-
   Southeast Minnesota

CITY           SKY/WX    TMP DP  RH WIND       PRES   REMARKS
ROCHESTER      LGT SNOW  13   8  81 W21G29    30.15R WCI  -5
RED WING       LGT SNOW  18  10  73 W14G21    30.15R WCI   4
STANTON        LGT SNOW  16  11  80 W15       30.17R WCI   1
DODGE CENTER   LGT SNOW  12   9  85 W20       30.15S WCI  -6
WINONA         LGT SNOW  18  12  79 NW15      30.18R WCI   3
AUSTIN         FLURRIES  10   7  85 W17G26    30.19R WCI  -7
PRESTON        CLOUDY    11   6  80 W20       30.16S WCI  -7
$$
ABBREVIATIONS USED IN REMARKS
   TC - TEMPERATURES IN CELSIUS
  WCI - WIND CHILL INDEX
   HX - HEAT INDEX
  VSB - VISIBILITY
$$




USA.gov is the U.S. government's official web portal to all federal, state and local government web resources and services.